TimeCDT,TemperatureF,Dew PointF,Humidity,Sea Level PressureIn,VisibilityMPH,Wind Direction,Wind SpeedMPH,Gust SpeedMPH,PrecipitationIn,Events,Conditions,WindDirDegrees,DateUTC
12:15 AM,62.6,33.8,34,30.11,10.0,SE,6.9,-,N/A,,Mostly Cloudy,130,2011-10-26 05:15:00
12:35 AM,62.6,35.6,37,30.10,10.0,ESE,4.6,-,N/A,,Mostly Cloudy,120,2011-10-26 05:35:00
12:55 AM,66.2,35.6,32,30.10,10.0,SE,3.5,-,N/A,,Scattered Clouds,140,2011-10-26 05:55:00
1:15 AM,60.8,33.8,36,30.10,10.0,West,5.8,-,N/A,,Clear,260,2011-10-26 06:15:00
1:55 AM,57.2,33.8,41,30.09,10.0,NE,3.5,-,N/A,,Partly Cloudy,50,2011-10-26 06:55:00
2:15 AM,57.2,33.8,41,30.09,10.0,North,3.5,-,N/A,,Mostly Cloudy,10,2011-10-26 07:15:00
2:35 AM,57.2,33.8,41,30.09,10.0,NNE,4.6,-,N/A,,Mostly Cloudy,30,2011-10-26 07:35:00
2:55 AM,59.0,33.8,39,30.08,10.0,NE,5.8,-,N/A,,Mostly Cloudy,40,2011-10-26 07:55:00
3:15 AM,57.2,33.8,41,30.08,10.0,NE,6.9,-,N/A,,Scattered Clouds,40,2011-10-26 08:15:00
3:35 AM,57.2,33.8,41,30.08,10.0,Calm,Calm,-,N/A,,Mostly Cloudy,0,2011-10-26 08:35:00
3:55 AM,55.4,33.8,44,30.09,10.0,Calm,Calm,-,N/A,,Mostly Cloudy,0,2011-10-26 08:55:00
4:15 AM,55.4,33.8,44,30.08,10.0,Calm,Calm,-,N/A,,Scattered Clouds,0,2011-10-26 09:15:00
4:35 AM,53.6,33.8,47,30.08,10.0,Calm,Calm,-,N/A,,Clear,0,2011-10-26 09:35:00
4:55 AM,51.8,30.2,44,30.08,10.0,Calm,Calm,-,N/A,,Clear,0,2011-10-26 09:55:00
5:15 AM,51.8,32.0,47,30.08,10.0,NNW,5.8,-,N/A,,Clear,330,2011-10-26 10:15:00
5:35 AM,53.6,33.8,47,30.08,10.0,NNW,5.8,-,N/A,,Clear,330,2011-10-26 10:35:00
5:55 AM,51.8,33.8,50,30.08,10.0,North,5.8,-,N/A,,Scattered Clouds,360,2011-10-26 10:55:00
6:15 AM,53.6,33.8,47,30.08,10.0,NNW,6.9,-,N/A,,Scattered Clouds,340,2011-10-26 11:15:00
6:35 AM,53.6,33.8,47,30.08,10.0,NNW,6.9,-,N/A,,Partly Cloudy,330,2011-10-26 11:35:00
7:15 AM,51.8,32.0,47,30.09,10.0,Calm,Calm,-,N/A,,Partly Cloudy,0,2011-10-26 12:15:00
7:35 AM,50.0,32.0,50,30.09,10.0,Calm,Calm,-,N/A,,Scattered Clouds,0,2011-10-26 12:35:00
7:55 AM,51.8,33.8,50,30.09,10.0,North,3.5,-,N/A,,Scattered Clouds,10,2011-10-26 12:55:00
8:15 AM,51.8,33.8,50,30.10,10.0,NNW,4.6,-,N/A,,Scattered Clouds,330,2011-10-26 13:15:00
8:35 AM,51.8,35.6,54,30.10,10.0,North,5.8,-,N/A,,Partly Cloudy,360,2011-10-26 13:35:00
8:55 AM,57.2,37.4,48,30.10,10.0,North,4.6,-,N/A,,Clear,10,2011-10-26 13:55:00
9:15 AM,60.8,39.2,45,30.10,10.0,Calm,Calm,-,N/A,,Clear,0,2011-10-26 14:15:00
9:35 AM,64.4,39.2,40,30.11,10.0,Calm,Calm,-,N/A,,Clear,0,2011-10-26 14:35:00
9:55 AM,66.2,42.8,43,30.11,10.0,NNW,3.5,-,N/A,,Clear,330,2011-10-26 14:55:00
10:15 AM,69.8,42.8,38,30.12,10.0,Calm,Calm,-,N/A,,Clear,0,2011-10-26 15:15:00
10:55 AM,73.4,44.6,36,30.11,10.0,SSW,6.9,-,N/A,,Clear,210,2011-10-26 15:55:00
11:15 AM,75.2,44.6,34,30.11,10.0,West,10.4,-,N/A,,Clear,280,2011-10-26 16:15:00
11:55 AM,77.0,44.6,32,30.10,10.0,WSW,6.9,-,N/A,,Clear,240,2011-10-26 16:55:00
12:15 PM,77.0,44.6,32,30.10,10.0,West,9.2,18.4,N/A,,Clear,260,2011-10-26 17:15:00
12:35 PM,77.0,44.6,32,30.10,10.0,West,8.1,16.1,N/A,,Clear,270,2011-10-26 17:35:00
12:55 PM,78.8,44.6,30,30.09,10.0,West,12.7,16.1,N/A,,Partly Cloudy,280,2011-10-26 17:55:00
1:15 PM,80.6,44.6,28,30.08,10.0,WSW,6.9,17.3,N/A,,Partly Cloudy,250,2011-10-26 18:15:00
1:35 PM,80.6,44.6,28,30.07,10.0,West,13.8,-,N/A,,Scattered Clouds,270,2011-10-26 18:35:00
1:55 PM,78.8,42.8,28,30.05,10.0,West,13.8,18.4,N/A,,Scattered Clouds,260,2011-10-26 18:55:00
2:15 PM,80.6,41.0,24,30.03,10.0,South,10.4,-,N/A,,Partly Cloudy,170,2011-10-26 19:15:00
2:35 PM,80.6,39.2,23,30.02,10.0,SW,20.7,25.3,N/A,,Clear,220,2011-10-26 19:35:00
2:55 PM,80.6,35.6,20,30.01,10.0,WSW,16.1,25.3,N/A,,Clear,250,2011-10-26 19:55:00
3:15 PM,80.6,33.8,18,30.00,10.0,WSW,13.8,20.7,N/A,,Clear,250,2011-10-26 20:15:00
3:35 PM,80.6,33.8,18,30.00,10.0,WSW,19.6,-,N/A,,Clear,240,2011-10-26 20:35:00
3:55 PM,80.6,33.8,18,29.99,10.0,SW,15.0,-,N/A,,Clear,230,2011-10-26 20:55:00
4:15 PM,80.6,33.8,18,29.98,10.0,WSW,13.8,20.7,N/A,,Clear,240,2011-10-26 21:15:00
4:35 PM,82.4,33.8,17,29.97,10.0,West,15.0,19.6,N/A,,Clear,260,2011-10-26 21:35:00
5:15 PM,80.6,33.8,18,29.96,10.0,SSW,11.5,-,N/A,,Clear,200,2011-10-26 22:15:00
5:35 PM,80.6,35.6,20,29.95,10.0,SSW,8.1,-,N/A,,Clear,200,2011-10-26 22:35:00
5:55 PM,80.6,35.6,20,29.95,10.0,SW,8.1,-,N/A,,Clear,220,2011-10-26 22:55:00
6:15 PM,80.6,33.8,18,29.94,10.0,West,8.1,-,N/A,,Clear,280,2011-10-26 23:15:00
6:35 PM,78.8,33.8,20,29.94,10.0,WSW,8.1,-,N/A,,Clear,240,2011-10-26 23:35:00
6:55 PM,77.0,33.8,21,29.94,10.0,WSW,5.8,-,N/A,,Clear,250,2011-10-26 23:55:00
7:15 PM,73.4,32.0,22,29.94,10.0,WSW,3.5,-,N/A,,Clear,250,2011-10-27 00:15:00
7:35 PM,71.6,33.8,25,29.94,10.0,Calm,Calm,-,N/A,,Clear,0,2011-10-27 00:35:00
7:55 PM,71.6,35.6,27,29.93,10.0,SSE,5.8,-,N/A,,Clear,160,2011-10-27 00:55:00
8:15 PM,69.8,35.6,28,29.94,10.0,South,6.9,-,N/A,,Clear,170,2011-10-27 01:15:00
8:35 PM,68.0,35.6,30,29.94,10.0,South,5.8,-,N/A,,Clear,180,2011-10-27 01:35:00
8:55 PM,66.2,35.6,32,29.93,10.0,South,4.6,-,N/A,,Clear,170,2011-10-27 01:55:00
9:15 PM,62.6,33.8,34,29.93,10.0,SSE,4.6,-,N/A,,Partly Cloudy,150,2011-10-27 02:15:00
9:35 PM,64.4,33.8,32,29.92,10.0,Calm,Calm,-,N/A,,Mostly Cloudy,0,2011-10-27 02:35:00
9:55 PM,62.6,33.8,34,29.92,10.0,Calm,Calm,-,N/A,,Scattered Clouds,0,2011-10-27 02:55:00
10:15 PM,62.6,33.8,34,29.92,10.0,North,3.5,-,N/A,,Clear,350,2011-10-27 03:15:00
10:35 PM,60.8,32.0,34,29.92,10.0,North,3.5,-,N/A,,Clear,360,2011-10-27 03:35:00
10:55 PM,60.8,32.0,34,29.92,10.0,NW,5.8,-,N/A,,Scattered Clouds,320,2011-10-27 03:55:00
11:15 PM,59.0,30.2,34,29.91,10.0,NW,3.5,-,N/A,,Mostly Cloudy,310,2011-10-27 04:15:00
11:35 PM,60.8,32.0,34,29.91,10.0,Calm,Calm,-,N/A,,Scattered Clouds,0,2011-10-27 04:35:00